TimeCEST,TemperatureF,Dew PointF,Humidity,Sea Level PressureIn,VisibilityMPH,Wind Direction,Wind SpeedMPH,Gust SpeedMPH,PrecipitationIn,Events,Conditions,WindDirDegrees,DateUTC
12:00 AM,41.0,37.4,87,29.95,-9999.0,WNW,8.1,-,N/A,,Clear,300,2012-10-09 22:00:00
1:00 AM,39.2,35.6,87,29.95,-9999.0,WNW,6.9,-,N/A,,Clear,300,2012-10-09 23:00:00
2:00 AM,39.2,35.6,87,29.95,-9999.0,WNW,9.2,-,N/A,,Clear,290,2012-10-10 00:00:00
3:00 AM,37.4,35.6,93,29.95,-9999.0,WNW,8.1,-,N/A,,Clear,300,2012-10-10 01:00:00
4:00 AM,37.4,33.8,87,29.95,-9999.0,WNW,9.2,-,N/A,,Clear,300,2012-10-10 02:00:00
5:00 AM,37.4,33.8,87,29.95,-9999.0,NW,8.1,-,N/A,,Clear,310,2012-10-10 03:00:00
6:00 AM,37.4,33.8,87,29.95,-9999.0,North,6.9,-,N/A,,Clear,350,2012-10-10 04:00:00
7:00 AM,35.6,33.8,93,29.95,-9999.0,Variable,2.3,-,N/A,,Clear,0,2012-10-10 05:00:00
8:00 AM,37.4,35.6,93,29.95,-9999.0,WNW,3.5,-,N/A,,Clear,290,2012-10-10 06:00:00
9:00 AM,37.4,35.6,93,29.95,-9999.0,WNW,5.8,-,N/A,,Clear,300,2012-10-10 07:00:00
10:00 AM,42.8,37.4,81,29.95,6.2,NNW,4.6,-,N/A,,Mostly Cloudy,330,2012-10-10 08:00:00
11:00 AM,44.6,37.4,76,29.98,6.2,Variable,2.3,-,N/A,,Scattered Clouds,0,2012-10-10 09:00:00
12:00 PM,46.4,37.4,71,29.95,6.2,NW,4.6,-,N/A,,Mostly Cloudy,320,2012-10-10 10:00:00
1:00 PM,48.2,35.6,62,29.95,6.2,Variable,2.3,-,N/A,,Mostly Cloudy,0,2012-10-10 11:00:00
2:00 PM,48.2,35.6,62,29.92,6.2,North,5.8,-,N/A,,Mostly Cloudy,360,2012-10-10 12:00:00
3:00 PM,50.0,35.6,58,29.92,6.2,Variable,2.3,-,N/A,,Mostly Cloudy,0,2012-10-10 13:00:00
4:00 PM,50.0,35.6,58,29.92,6.2,Calm,Calm,-,N/A,,Mostly Cloudy,0,2012-10-10 14:00:00
5:00 PM,50.0,35.6,58,29.92,6.2,Variable,2.3,-,N/A,,Mostly Cloudy,0,2012-10-10 15:00:00
6:00 PM,48.2,35.6,62,29.92,6.2,North,4.6,-,N/A,,Mostly Cloudy,360,2012-10-10 16:00:00
7:00 PM,46.4,35.6,66,29.92,-9999.0,NNW,4.6,-,N/A,,Clear,340,2012-10-10 17:00:00
8:00 PM,46.4,37.4,71,29.92,-9999.0,NNW,3.5,-,N/A,,Clear,340,2012-10-10 18:00:00
9:00 PM,46.4,37.4,71,29.95,-9999.0,NNW,3.5,-,N/A,,Clear,340,2012-10-10 19:00:00
10:00 PM,44.6,39.2,81,29.95,-9999.0,WNW,3.5,-,N/A,,Clear,300,2012-10-10 20:00:00
11:00 PM,42.8,37.4,81,29.95,-9999.0,NNW,2.3,-,N/A,,Clear,330,2012-10-10 21:00:00